Effective Sunday, March 17, 2024, the National Weather Service National Data Buoy Center will discontinue its Dial-A-Buoy Interactive Voice Response system. For more information, see Service Change Notice 24-06 (PDF).

Station CSPA2 - Cape Spencer, AK Image indicating link to RSS feed of recent meteorological observations for station CSPA2


Conditions at CSPA2 as of
(6:10 am AKST)
1510 GMT on 03/03/2024:
     

Click on the graph icon in the table below to see a time series plot of the last five days of that observation.

5-day plot - Wind Direction Wind Direction (WDIR): E ( 80 deg true )
5-day plot - Wind Speed Wind Speed (WSPD): 28.0 kts
5-day plot - Wind Gust Wind Gust (GST): 36.9 kts
5-day plot - Atmospheric Pressure Atmospheric Pressure (PRES):29.98 in
5-day plot - Air Temperature Air Temperature (ATMP): 19.2 °F
5-day plot - Dew Point Dew Point (DEWP): 19.2 °F
5-day plot - Wind Chill Wind Chill (CHILL): -0.2 °F
5-day plot - Wind Speed at 10 Meters Wind Speed at 10 meters (WSPD10M): 27.2 kts
5-day plot - Wind Speed at 20 Meters Wind Speed at 20 meters (WSPD20M): 29.1 kts
5-day plot -  Wind Speed, Wind Gust and Atmospheric Pressure Combined plot of Wind Speed, Gust, and Air Pressure
Previous observations
TIME
(AKST)
5-day plot - Wind Direction
WDIR
 
5-day plot - Wind Speed
WSPD
kts
5-day plot - Wind Gust
GST
kts
5-day plot - Wave Height
WVHT
ft
5-day plot - Dominant Wave Period
DPD
sec
5-day plot - Average Wave Period
APD
sec
5-day plot - Mean Wave Direction
MWD
 
5-day plot - Atmospheric Pressure
PRES
in
5-day plot - Pressure Tendency
PTDY
in
5-day plot - Air Temperature
ATMP
°F
5-day plot - Water Temperature
WTMP
°F
5-day plot - Dew Point
DEWP
°F
5-day plot - Salinity
SAL
psu
5-day plot - Visibility
VIS
nmi
5-day plot - Tide (above MLLW)
TIDE
ft
2024-03-03 05:10 am E 32.1 39.0----29.97- 19.6- 19.6---
2024-03-03 04:10 amENE 28.0 39.0----29.96- 18.5- 18.5---
2024-03-03 03:10 amENE 34.0 42.9----29.93- 18.3- 18.3---
2024-03-03 02:10 amENE 36.9 45.1----29.91- 18.9- 18.9---
2024-03-03 01:10 amENE 27.0 35.9----29.94- 18.9- 18.9---
2024-03-03 12:10 amENE 29.9 39.0----29.92- 18.7- 18.7---
2024-03-02 11:10 pmENE 29.9 39.0----29.91- 19.4- 19.4---
2024-03-02 10:10 pmENE 22.0 33.0----29.89- 19.2- 19.2---
2024-03-02 09:10 pmENE 24.1 35.9----29.87- 19.8- 19.8---
2024-03-02 08:10 pm NE 25.1 35.0----29.87- 20.7- 20.7---
2024-03-02 07:10 pmENE 24.1 34.0----29.86- 20.7- 20.7---
2024-03-02 06:10 pmENE 22.0 29.9----29.85- 20.8- 20.8---
2024-03-02 05:10 pmENE 22.0 32.1----29.83- 21.4- 21.4---
2024-03-02 04:10 pmENE 25.1 34.0----29.82- 21.9- 21.9---
2024-03-02 03:10 pmENE 31.1 40.0----29.81- 22.1- 22.1---
2024-03-02 02:10 pmENE 28.0 40.0----29.80- 22.3- 22.3---
2024-03-02 01:10 pmENE 31.1 36.9----29.79- 22.3- 22.3---
2024-03-02 12:10 pm NE 29.9 41.0----29.78- 22.1- 22.1---
2024-03-02 11:10 amENE 28.0 39.0----29.77- 22.6- 22.6---
2024-03-02 10:10 amENE 29.9 42.9----29.75- 22.3- 22.3---
2024-03-02 09:10 amENE 17.1 29.9----29.76- 22.3- 22.3---
2024-03-02 08:10 amENE 28.0 39.0----29.75- 22.1- 22.1---
2024-03-02 07:10 amENE 20.0 35.9----29.74- 21.2- 21.2---
2024-03-02 06:10 amENE 26.0 35.0----29.74- 21.2- 21.2---